Regional Weather Roundup
Issued by NWS Green Bay, WI

Home | Current Version | Previous Version | Text Only | Print | Product List | Glossary On
Versions: 1 2 3 4 5 6 7 8 9 10 11 12 13 14 15 16 17 18 19 20 21 22 23 24 25 26 27 28 29 30 31 32 33 34 35 36 37 38 39 40 41 42 43 44 45 46 47 48 49 50
000
ASUS43 KGRB 250611
RWRGRB

NORTH-CENTRAL AND NORTHEAST WISCONSIN REGIONAL WEATHER ROUNDUP
NATIONAL WEATHER SERVICE GREEN BAY WI
100 AM CDT WED MAY 25 2016

WIZ005-009-010>012-018-019-250700-
NORTH CENTRAL WISCONSIN

CITY           SKY/WX    TMP DP  RH WIND       PRES   REMARKS
IRONWOOD       CLOUDY    52  52 100 MISG      29.99S VSB 1
MANITOWISH WTR NOT AVBL
ARBOR VITAE    CLEAR     54  52  95 CALM      30.01R FOG
EAGLE RIVER    FOG       56  56 100 CALM      30.01S VSB<1/4
LAND O LAKES   FOG       61  61 100 N5        30.02S VSB 1
RHINELANDER    FOG       54  53  97 CALM      30.01S VSB 1/4
PHILLIPS       FOG       55  55 100 CALM      29.99F VSB 1/2
ANTIGO         CLEAR     55  55  97 N6        30.00S
TOMAHAWK       CLEAR     52  51  95 CALM      30.01S FOG
MERRILL        CLEAR     55  55 100 CALM      30.00S
$$

WIZ013-073-250700-
NORTHEAST WISCONSIN

CITY           SKY/WX    TMP DP  RH WIND       PRES   REMARKS
IRON MOUNTAIN  CLOUDY    61  59  93 CALM      29.98R
MARINETTE      FOG       55  55 100 CALM      29.98R VSB 3/4
OCONTO         MOCLDY   N/A N/A N/A CALM      29.95S VSB 3/4
$$

WIZ017-030-035>037-045-250700-
CENTRAL WISCONSIN

CITY           SKY/WX    TMP DP  RH WIND       PRES   REMARKS
MEDFORD        CLEAR     57  57  97 NE5       29.99S
WAUSAU         CLEAR     64  57  78 CALM      29.97R
MOSINEE        CLEAR     59  55  88 N7        29.99R
MARSHFIELD     CLEAR     62  56  80 NE5       29.96S
WISC RAPIDS    CLEAR     59  55  87 CALM      29.97S
STEVENS POINT  CLEAR     54  52  94 CALM      29.98R
WAUPACA        CLEAR     60  56  88 CALM      29.96S
SHAWANO        CLEAR     63  58  85 N3        29.96S
CLINTONVILLE   CLEAR     59  54  82 CALM      29.96S
WAUTOMA        CLEAR     57  54  89 CALM      29.96S
$$

WIZ038-039-048-051-250700-
FOX VALLEY

CITY           SKY/WX    TMP DP  RH WIND       PRES   REMARKS
NWS GREEN BAY  CLEAR     62  59  90 VRB5      29.95R
APPLETON       CLEAR     64  54  68 CALM      29.94F
OSHKOSH        CLEAR     62  57  83 CALM      29.95S
FOND DU LAC    CLEAR     59  57  93 S3        29.95S
$$

WIZ022-050-052-250700-
EAST CENTRAL WISCONSIN

CITY           SKY/WX    TMP DP  RH WIND       PRES   REMARKS
EPHRAIM        FAIR      54  53  97 NE5       29.96R FOG
STURGEON BAY   NOT AVBL
MANITOWOC      CLEAR     57  55  93 CALM      29.96R
SHEBOYGAN      CLEAR     55  53  93 CALM      29.95S FOG
$$

LMZ563-521-522-541>543-250700-
LAKESHORE

STATION/POSITION TIME  TEMP    WIND        PRES    VSBY  WAVE
                       AIR SEA DIR/SP/G                  HT/PER
                 (UTC) (F)     (DEG/KT/KT) (MB)    (MI)  (FT/S)
SHEBOYGAN LKSHOR 0600   66     250/  5/  5 1014.4R
KEWAUNEE LKSHORE 0500   59     250/  1/  3 1013.3F
ALGOMA MARINA    0517             CALM       N/A
NORTHPORT PIER   0500   53     310/  3/  6 1014.2F
N MID LAKE BUOY  0550   47 44   80/  6/  6 1015.0R         2/ 4
SISTER BAY LKSHO 0504   56        CALM       N/A
CHAMBERS ISLAND  0500   55      30/  5/  6 1014.6S
MENOMINEE LKSHOR 0500   56      10/  5/  5 1013.2S
$$




USA.gov is the U.S. government's official web portal to all federal, state and local government web resources and services.